This is the latest recevied weather packets stored in our database for station/object AG7BI. If no packets are shown the sender has not sent any weather packets the latest 10 day(s).
| Time | Temp. | Humidity | Pressure | Rain* | Wind** | Luminosity | Snow |
|---|---|---|---|---|---|---|---|
| 1777692952 | 13.33° C | 75% | 1015.6 hPa | 0 mm | - | - | - |
| 1777692652 | 13.33° C | 72% | 1015.5 hPa | 0 mm | - | - | - |
| 1777692352 | 13.89° C | 71% | 1015.7 hPa | 0 mm | - | - | - |
| 1777692052 | 13.89° C | 70% | 1015.3 hPa | 0 mm | - | - | - |
| 1777691752 | 13.89° C | 72% | 1015.5 hPa | 0 mm | - | - | - |
| 1777691452 | 14.44° C | 69% | 1015.4 hPa | 0 mm | - | - | - |
| 1777691152 | 14.44° C | 69% | 1015.4 hPa | 0 mm | - | - | - |
| 1777690852 | 14.44° C | 68% | 1015.2 hPa | 0 mm | - | - | - |
| 1777690552 | 14.44° C | 69% | 1015.2 hPa | 0 mm | - | - | - |
| 1777690252 | 14.44° C | 66% | 1015.2 hPa | 0 mm | - | - | - |
| 1777689952 | 14.44° C | 66% | 1014.8 hPa | 0 mm | - | - | - |
| 1777689652 | 14.44° C | 63% | 1014.8 hPa | 0 mm | - | - | - |
| 1777689352 | 15° C | 62% | 1015.1 hPa | 0 mm | - | - | - |
| 1777689052 | 15° C | 62% | 1015.2 hPa | 0 mm | - | - | - |
| 1777688752 | 15° C | 63% | 1015.1 hPa | 0 mm | - | - | - |
| 1777688452 | 15° C | 59% | 1015 hPa | 0 mm | - | - | - |
| 1777688152 | 15° C | 58% | 1015 hPa | 0 mm | - | - | - |
| 1777687852 | 15.56° C | 59% | 1015.1 hPa | 0 mm | - | - | - |
| 1777687552 | 15.56° C | 56% | 1014.9 hPa | 0 mm | - | - | - |
| 1777687252 | 15.56° C | 58% | 1014.8 hPa | 0 mm | - | - | - |
| 1777686952 | 15.56° C | 60% | 1014.6 hPa | 0 mm | - | - | - |
| 1777686652 | 15.56° C | 62% | 1014.9 hPa | 0 mm | - | - | - |
| 1777686352 | 15.56° C | 62% | 1015 hPa | 0 mm | - | - | - |
| 1777686052 | 15.56° C | 62% | 1015 hPa | 0 mm | - | - | - |
| 1777685752 | 15.56° C | 62% | 1015.1 hPa | 0 mm | - | - | - |
* Rain latest hour (hover to see other rain measurements)
** Current wind speed in m/s (hover to see current wind gust speed)